Starlink 31180

operational
NORAD ID: 58732 Int'l Des: 2024-005 Owner: SPXS Country: US Constellation: starlink
LEOCIRCULAR

Starlink 31180について

説明を読み込み中...

リアルタイム位置

3D地球を読み込み中...

次回通過

高度履歴

Altitude vs Time

uPlot chart will show altitude changes over time

軌道要素

1 58732U 24005E 25348.20899928 .00009930 00000-0 74923-3 0 9994
2 58732 43.0038 326.0632 0001331 280.0521 80.0171 15.02530909107552
Epoch: Dec 14, 2025 • Age: 36 hours

現在のステータス

高度 567.4 km
速度 7.58 km/s
衛星直下点 -32.29°S, 161.47°W
打ち上げ日 Jan 7, 2024
運用期間 1.9 years
タイプ internet

技術仕様

分類 Payload
質量 730.00 kg
乾燥質量 700.00 kg
総質量 730.00 kg
長さ 0.30 m
直径 4.10 m
スパン 29.00 m
形状 Box + pan
製造者 SPXS
バスタイプ Starlink V2M
フェーズステータス In Orbit
所有者/国 SPXS/US

大規模コンステレーション

Loading constellations...